Location: Shenandoah County Park
(38.9356°N, 78.4524°W)
Time: 14:36:45
(UTC-05:00)

Vanguard 2 Rocket - Pass Details

Date: 07 December 2023
Orbit: 555 x 3309 km, 32.9° (Epoch: 03 March)

Event Time Altitude Azimuth Distance (km) Brightness Sun altitude
Rises 19:12:22 0° 281° (W) 7,205 12.6 -26.7°
Reaches altitude 10° 19:17:21 10° 277° (W) 6,258 12.1 -27.6°
Maximum altitude 19:36:06 50° 210° (SSW) 3,534 9.9 -31.3°
Enters shadow 19:47:42 18° 146° (SE) 4,333 10.0 -33.5°
Drops below altitude 10° 19:50:05 10° 141° (SE) 4,767 - -34.0°
Sets 19:53:19 0° 135° (SE) 5,445 - -34.6°
